Time,TemperatureF,DewpointF,PressureIn,WindDirection,WindDirectionDegrees,WindSpeedMPH,WindSpeedGustMPH,Humidity,HourlyPrecipIn,Conditions,Clouds,dailyrainin,SoftwareType,DateUTC
2013-02-26 00:01:00,31.0,28.0,-100.00,South,190,1.0,2.0,89,-99.99,,,-99.99,,2013-02-26 05:01:00,
2013-02-26 00:12:00,30.0,28.0,-100.00,South,190,0.0,1.0,90,-99.99,,,-99.99,,2013-02-26 05:12:00,
2013-02-26 00:22:00,30.0,28.0,-100.00,South,185,0.0,2.0,90,-99.99,,,-99.99,,2013-02-26 05:22:00,
2013-02-26 00:32:00,30.0,28.0,-100.00,South,190,3.0,3.0,90,-99.99,,,-99.99,,2013-02-26 05:32:00,
2013-02-26 00:43:00,30.0,28.0,-100.00,South,180,1.0,3.0,91,-99.99,,,-99.99,,2013-02-26 05:43:00,
2013-02-26 00:52:00,30.0,28.0,-100.00,NE,55,1.0,1.0,91,-99.99,,,-99.99,,2013-02-26 05:52:00,
2013-02-26 01:02:00,30.0,28.0,-100.00,NNE,30,0.0,1.0,91,-99.99,,,-99.99,,2013-02-26 06:02:00,
2013-02-26 01:11:00,29.0,27.0,-100.00,East,95,0.0,1.0,91,-99.99,,,-99.99,,2013-02-26 06:11:00,
2013-02-26 01:21:00,29.0,27.0,-100.00,SSW,195,2.0,4.0,92,-99.99,,,-99.99,,2013-02-26 06:21:00,
2013-02-26 01:32:00,29.0,27.0,-100.00,SSW,195,4.0,5.0,92,-99.99,,,-99.99,,2013-02-26 06:32:00,
2013-02-26 01:42:00,29.0,27.0,-100.00,SSW,205,4.0,4.0,92,-99.99,,,-99.99,,2013-02-26 06:42:00,
2013-02-26 01:52:00,29.0,27.0,-100.00,SSW,200,2.0,4.0,93,-99.99,,,-99.99,,2013-02-26 06:52:00,
2013-02-26 02:01:00,28.0,26.0,-100.00,SSE,150,0.0,3.0,93,-99.99,,,-99.99,,2013-02-26 07:01:00,
2013-02-26 02:11:00,28.0,26.0,-100.00,ESE,110,1.0,3.0,93,-99.99,,,-99.99,,2013-02-26 07:11:00,
2013-02-26 02:22:00,28.0,26.0,-100.00,ESE,110,1.0,3.0,93,-99.99,,,-99.99,,2013-02-26 07:22:00,
2013-02-26 02:32:00,28.0,26.0,-100.00,SSW,200,2.0,2.0,93,-99.99,,,-99.99,,2013-02-26 07:32:00,
2013-02-26 02:42:00,28.0,26.0,-100.00,SSW,205,4.0,4.0,93,-99.99,,,-99.99,,2013-02-26 07:42:00,
2013-02-26 02:51:00,27.0,26.0,-100.00,SE,135,0.0,4.0,93,-99.99,,,-99.99,,2013-02-26 07:51:00,
2013-02-26 03:02:00,28.0,26.0,-100.00,ESE,110,0.0,1.0,94,-99.99,,,-99.99,,2013-02-26 08:02:00,
2013-02-26 03:11:00,28.0,27.0,-100.00,ESE,115,0.0,2.0,94,-99.99,,,-99.99,,2013-02-26 08:11:00,
2013-02-26 03:21:00,28.0,27.0,-100.00,SSE,150,0.0,1.0,94,-99.99,,,-99.99,,2013-02-26 08:21:00,
2013-02-26 03:32:00,29.0,27.0,-100.00,SE,130,1.0,3.0,94,-99.99,,,-99.99,,2013-02-26 08:32:00,
2013-02-26 03:42:00,29.0,27.0,-100.00,NNE,30,2.0,4.0,94,-99.99,,,-99.99,,2013-02-26 08:42:00,
2013-02-26 03:52:00,28.0,26.0,-100.00,ENE,60,0.0,1.0,94,-99.99,,,-99.99,,2013-02-26 08:52:00,
2013-02-26 04:02:00,28.0,26.0,-100.00,SSE,160,1.0,1.0,94,-99.99,,,-99.99,,2013-02-26 09:02:00,
2013-02-26 04:11:00,28.0,27.0,-100.00,ENE,75,0.0,2.0,94,-99.99,,,-99.99,,2013-02-26 09:11:00,
2013-02-26 04:21:00,29.0,28.0,-100.00,South,185,1.0,2.0,94,-99.99,,,-99.99,,2013-02-26 09:21:00,
2013-02-26 04:32:00,29.0,28.0,-100.00,SSE,160,1.0,2.0,94,-99.99,,,-99.99,,2013-02-26 09:32:00,
2013-02-26 04:43:00,28.0,27.0,-100.00,ENE,70,1.0,3.0,94,-99.99,,,-99.99,,2013-02-26 09:43:00,
2013-02-26 04:51:00,28.0,27.0,-100.00,SSW,195,1.0,2.0,95,-99.99,,,-99.99,,2013-02-26 09:51:00,
2013-02-26 05:01:00,29.0,28.0,-100.00,SSE,160,2.0,4.0,95,-99.99,,,-99.99,,2013-02-26 10:01:00,
2013-02-26 05:11:00,29.0,28.0,-100.00,ESE,120,1.0,3.0,95,-99.99,,,-99.99,,2013-02-26 10:11:00,
2013-02-26 05:21:00,29.0,28.0,-100.00,ESE,120,0.0,1.0,95,-99.99,,,-99.99,,2013-02-26 10:21:00,
2013-02-26 05:32:00,30.0,29.0,-100.00,NE,40,0.0,3.0,95,-99.99,,,-99.99,,2013-02-26 10:32:00,
2013-02-26 05:42:00,30.0,29.0,-100.00,South,175,1.0,2.0,95,-99.99,,,-99.99,,2013-02-26 10:42:00,
2013-02-26 05:52:00,31.0,29.0,-100.00,SW,235,1.0,3.0,95,-99.99,,,-99.99,,2013-02-26 10:52:00,
2013-02-26 06:01:00,31.0,30.0,-100.00,South,190,3.0,4.0,95,-99.99,,,-99.99,,2013-02-26 11:01:00,
2013-02-26 06:12:00,32.0,31.0,-100.00,South,180,3.0,6.0,95,-99.99,,,-99.99,,2013-02-26 11:12:00,
2013-02-26 06:22:00,32.0,31.0,-100.00,SSE,160,2.0,7.0,95,-99.99,,,-99.99,,2013-02-26 11:22:00,
2013-02-26 06:32:00,33.0,31.0,-100.00,East,95,1.0,4.0,95,-99.99,,,-99.99,,2013-02-26 11:32:00,
2013-02-26 06:42:00,33.0,31.0,-100.00,ESE,115,1.0,6.0,95,-99.99,,,-99.99,,2013-02-26 11:42:00,
2013-02-26 06:52:00,33.0,31.0,-100.00,ENE,75,2.0,4.0,95,-99.99,,,-99.99,,2013-02-26 11:52:00,
2013-02-26 07:02:00,33.0,32.0,-100.00,ENE,65,1.0,4.0,94,-99.99,,,-99.99,,2013-02-26 12:02:00,
2013-02-26 07:11:00,34.0,33.0,-100.00,NE,40,2.0,4.0,94,-99.99,,,-99.99,,2013-02-26 12:11:00,
2013-02-26 07:22:00,34.0,33.0,-100.00,East,90,1.0,5.0,94,-99.99,,,-99.99,,2013-02-26 12:22:00,
2013-02-26 07:32:00,35.0,33.0,-100.00,ESE,120,1.0,6.0,94,-99.99,,,-99.99,,2013-02-26 12:32:00,
2013-02-26 07:42:00,35.0,33.0,-100.00,SE,130,1.0,4.0,93,-99.99,,,-99.99,,2013-02-26 12:42:00,
2013-02-26 07:52:00,35.0,33.0,-100.00,ESE,110,1.0,5.0,92,-99.99,,,-99.99,,2013-02-26 12:52:00,
2013-02-26 08:02:00,35.0,32.0,-100.00,East,85,2.0,5.0,90,-99.99,,,-99.99,,2013-02-26 13:02:00,
2013-02-26 08:11:00,35.0,32.0,-100.00,ESE,105,1.0,4.0,89,-99.99,,,-99.99,,2013-02-26 13:11:00,
2013-02-26 08:22:00,35.0,32.0,-100.00,East,100,2.0,6.0,88,-99.99,,,-99.99,,2013-02-26 13:22:00,
2013-02-26 08:32:00,35.0,32.0,-100.00,NE,55,1.0,6.0,87,-99.99,,,-99.99,,2013-02-26 13:32:00,
2013-02-26 08:42:00,35.0,32.0,-100.00,NE,40,2.0,6.0,85,-99.99,,,-99.99,,2013-02-26 13:42:00,
2013-02-26 08:51:00,36.0,32.0,-100.00,NNE,30,2.0,6.0,85,-99.99,,,-99.99,,2013-02-26 13:51:00,
2013-02-26 09:01:00,36.0,32.0,-100.00,NE,50,2.0,7.0,83,-99.99,,,-99.99,,2013-02-26 14:01:00,
2013-02-26 09:11:00,36.0,32.0,-100.00,ENE,65,4.0,7.0,82,-99.99,,,-99.99,,2013-02-26 14:11:00,
2013-02-26 09:21:00,37.0,31.0,-100.00,ENE,60,3.0,9.0,80,-99.99,,,-99.99,,2013-02-26 14:21:00,
2013-02-26 09:32:00,37.0,31.0,-100.00,NE,45,4.0,9.0,79,-99.99,,,-99.99,,2013-02-26 14:32:00,
2013-02-26 09:42:00,38.0,31.0,-100.00,NE,50,2.0,7.0,77,-99.99,,,-99.99,,2013-02-26 14:42:00,
2013-02-26 09:52:00,38.0,32.0,-100.00,NE,55,2.0,5.0,76,-99.99,,,-99.99,,2013-02-26 14:52:00,
2013-02-26 10:02:00,38.0,31.0,-100.00,ENE,65,2.0,9.0,75,-99.99,,,-99.99,,2013-02-26 15:02:00,
2013-02-26 10:11:00,39.0,31.0,-100.00,NE,45,2.0,7.0,74,-99.99,,,-99.99,,2013-02-26 15:11:00,
2013-02-26 10:22:00,39.0,31.0,-100.00,ESE,105,4.0,9.0,73,-99.99,,,-99.99,,2013-02-26 15:22:00,
2013-02-26 10:32:00,39.0,31.0,-100.00,ENE,60,3.0,6.0,73,-99.99,,,-99.99,,2013-02-26 15:32:00,
2013-02-26 10:42:00,39.0,31.0,-100.00,ENE,65,4.0,9.0,72,-99.99,,,-99.99,,2013-02-26 15:42:00,
2013-02-26 10:52:00,40.0,31.0,-100.00,NE,45,2.0,7.0,72,-99.99,,,-99.99,,2013-02-26 15:52:00,
2013-02-26 11:02:00,40.0,31.0,-100.00,ESE,110,2.0,7.0,72,-99.99,,,-99.99,,2013-02-26 16:02:00,
2013-02-26 11:11:00,40.0,31.0,-100.00,East,95,4.0,10.0,71,-99.99,,,-99.99,,2013-02-26 16:11:00,
2013-02-26 11:22:00,40.0,31.0,-100.00,ENE,65,3.0,7.0,71,-99.99,,,-99.99,,2013-02-26 16:22:00,
2013-02-26 11:32:00,40.0,32.0,-100.00,ENE,75,3.0,7.0,72,-99.99,,,-99.99,,2013-02-26 16:32:00,
2013-02-26 11:42:00,39.0,33.0,-100.00,ENE,65,3.0,7.0,79,-99.99,,,-99.99,,2013-02-26 16:42:00,
2013-02-26 11:52:00,39.0,35.0,-100.00,East,80,1.0,6.0,83,-99.99,,,-99.99,,2013-02-26 16:52:00,
2013-02-26 12:01:00,39.0,35.0,-100.00,NE,35,1.0,9.0,86,-99.99,,,-99.99,,2013-02-26 17:01:00,
2013-02-26 12:11:00,39.0,35.0,-100.00,East,85,3.0,6.0,88,-99.99,,,-99.99,,2013-02-26 17:11:00,
2013-02-26 12:21:00,39.0,35.0,-100.00,East,85,3.0,6.0,88,-99.99,,,-99.99,,2013-02-26 17:21:00,
2013-02-26 12:32:00,39.0,37.0,-100.00,ENE,70,2.0,9.0,90,-99.99,,,-99.99,,2013-02-26 17:32:00,
2013-02-26 12:42:00,39.0,37.0,-100.00,ENE,75,3.0,7.0,91,-99.99,,,-99.99,,2013-02-26 17:42:00,
2013-02-26 12:52:00,39.0,37.0,-100.00,NE,40,4.0,6.0,92,-99.99,,,-99.99,,2013-02-26 17:52:00,
2013-02-26 13:02:00,39.0,37.0,-100.00,East,100,2.0,6.0,92,-99.99,,,-99.99,,2013-02-26 18:02:00,
2013-02-26 13:12:00,39.0,37.0,-100.00,East,85,2.0,8.0,93,-99.99,,,-99.99,,2013-02-26 18:12:00,
2013-02-26 13:21:00,39.0,37.0,-100.00,ESE,105,3.0,7.0,93,-99.99,,,-99.99,,2013-02-26 18:21:00,
2013-02-26 13:32:00,39.0,38.0,-100.00,ENE,70,2.0,8.0,93,-99.99,,,-99.99,,2013-02-26 18:32:00,
2013-02-26 13:42:00,40.0,38.0,-100.00,East,85,3.0,13.0,93,-99.99,,,-99.99,,2013-02-26 18:42:00,
2013-02-26 13:52:00,40.0,38.0,-100.00,NE,35,3.0,12.0,93,-99.99,,,-99.99,,2013-02-26 18:52:00,
2013-02-26 14:01:00,40.0,38.0,-100.00,East,90,4.0,14.0,93,-99.99,,,-99.99,,2013-02-26 19:01:00,
2013-02-26 14:11:00,40.0,38.0,-100.00,ENE,75,3.0,11.0,94,-99.99,,,-99.99,,2013-02-26 19:11:00,
2013-02-26 14:22:00,39.0,38.0,-100.00,East,95,4.0,11.0,94,-99.99,,,-99.99,,2013-02-26 19:22:00,
2013-02-26 14:32:00,39.0,38.0,-100.00,ENE,65,5.0,13.0,94,-99.99,,,-99.99,,2013-02-26 19:32:00,
2013-02-26 14:42:00,39.0,38.0,-100.00,NE,55,4.0,12.0,94,-99.99,,,-99.99,,2013-02-26 19:42:00,
2013-02-26 14:52:00,39.0,38.0,-100.00,East,80,3.0,10.0,95,-99.99,,,-99.99,,2013-02-26 19:52:00,
2013-02-26 15:01:00,39.0,38.0,-100.00,ENE,70,4.0,12.0,95,-99.99,,,-99.99,,2013-02-26 20:01:00,
2013-02-26 15:11:00,39.0,38.0,-100.00,NE,45,2.0,13.0,95,-99.99,,,-99.99,,2013-02-26 20:11:00,
2013-02-26 15:21:00,39.0,38.0,-100.00,ENE,75,2.0,11.0,96,-99.99,,,-99.99,,2013-02-26 20:21:00,
2013-02-26 15:32:00,39.0,38.0,-100.00,ENE,70,4.0,14.0,96,-99.99,,,-99.99,,2013-02-26 20:32:00,
2013-02-26 15:41:00,39.0,38.0,-100.00,NE,55,3.0,10.0,96,-99.99,,,-99.99,,2013-02-26 20:41:00,
2013-02-26 15:52:00,39.0,38.0,-100.00,East,80,4.0,12.0,96,-99.99,,,-99.99,,2013-02-26 20:52:00,
2013-02-26 16:01:00,38.0,37.0,-100.00,East,80,2.0,13.0,96,-99.99,,,-99.99,,2013-02-26 21:01:00,
2013-02-26 16:11:00,38.0,37.0,-100.00,East,80,4.0,11.0,97,-99.99,,,-99.99,,2013-02-26 21:11:00,
2013-02-26 16:21:00,38.0,37.0,-100.00,East,95,5.0,17.0,97,-99.99,,,-99.99,,2013-02-26 21:21:00,
2013-02-26 16:31:00,38.0,37.0,-100.00,NE,55,4.0,10.0,97,-99.99,,,-99.99,,2013-02-26 21:31:00,
2013-02-26 16:41:00,38.0,37.0,-100.00,East,80,6.0,13.0,98,-99.99,,,-99.99,,2013-02-26 21:41:00,
2013-02-26 16:50:00,38.0,37.0,-100.00,East,100,6.0,12.0,98,-99.99,,,-99.99,,2013-02-26 21:50:00,
2013-02-26 16:51:00,38.0,37.0,-100.00,ESE,105,6.0,12.0,98,-99.99,,,-99.99,,2013-02-26 21:51:00,
2013-02-26 17:01:00,38.0,37.0,-100.00,ENE,75,4.0,13.0,98,-99.99,,,-99.99,,2013-02-26 22:01:00,
2013-02-26 17:11:00,38.0,37.0,-100.00,East,100,6.0,12.0,98,-99.99,,,-99.99,,2013-02-26 22:11:00,
2013-02-26 17:21:00,38.0,37.0,-100.00,East,100,6.0,12.0,98,-99.99,,,-99.99,,2013-02-26 22:21:00,
2013-02-26 17:32:00,38.0,37.0,-100.00,East,100,6.0,12.0,98,-99.99,,,-99.99,,2013-02-26 22:32:00,
2013-02-26 17:41:00,38.0,37.0,-100.00,East,100,6.0,12.0,98,-99.99,,,-99.99,,2013-02-26 22:41:00,